Location: Iowa City
(41.6610°N, 91.5300°W)
Time: 20:44:11
(UTC-05:00)

ISS - Visible Passes

Search period start: 31 October 2014 00:00
Search period end: 09 November 2014 23:00
Orbit: 412 x 417 km, 51.6° (Epoch: 31 October)

Date Brightness Start Highest point End Pass type
(mag) Time Alt. Az. Time Alt. Az. Time Alt. Az.
07 Nov -0.5 06:07:12 10° S 06:09:48 22° SE 06:12:26 10° E visible
08 Nov -0.1 05:19:08 10° SSE 05:20:35 12° SE 05:22:02 10° ESE visible
09 Nov -2.7 06:04:07 10° SW 06:07:22 59° SE 06:10:39 10° ENE visible
